Location: Unspecified
(42.3650°N, 71.1030°W)
Time: 12:43:27
(UTC+00:00)

Courier 1B - Pass Details

Date: 03 July 2024
Orbit: 962 x 1209 km, 28.3° (Epoch: 25 July)

Event Time Altitude Azimuth Distance (km) Brightness Sun altitude
Rises 23:51:56 0° 216° (SW) 3,649 10.6 4.4°
Reaches altitude 10° 23:55:53 10° 193° (SSW) 2,686 9.7 3.8°
Maximum altitude 23:59:14 15° 161° (SSE) 2,360 9.1 3.2°
Drops below altitude 10° 00:02:35 10° 130° (SE) 2,689 9.2 2.7°
Sets 00:06:32 0° 107° (ESE) 3,656 9.8 2.0°
